Regional Weather Roundup
Issued by NWS Boston, MA

Home | Current Version | Previous Version | Text Only | Print | Product List | Glossary On
Versions: 1 2 3 4 5 6 7 8 9 10 11 12 13 14 15 16 17 18 19 20 21 22 23 24 25 26 27 28 29 30 31 32 33 34 35 36 37 38 39 40 41 42 43 44 45 46 47 48 49 50
000
ASUS41 KBOX 270310
RWRBOX

REGIONAL WEATHER ROUNDUP
NATIONAL WEATHER SERVICE BOSTON/NORTON MA
1100 PM EDT WED JUN 26 2019

NOTE:  "FAIR" INDICATES FEW OR NO CLOUDS BELOW 12,000 FEET WITH NO
SIGNIFICANT WEATHER AND/OR OBSTRUCTIONS TO VISIBILITY.

MAZALL-270400-
EASTERN MASSACHUSETTS

CITY           SKY/WX    TMP DP  RH WIND       PRES   REMARKS
BOSTON         MOCLDY    64  60  87 CALM      30.07R
BEVERLY        FAIR      60  58  92 CALM      30.05S
LAWRENCE       FAIR      61  59  93 NE3       30.08R
BEDFORD        FAIR      66  59  78 NE3       30.05R
BLUE HILL        N/A     66  65  96 S7        30.06R
NORWOOD        FAIR      67  61  81 NE3       30.06R
MARSHFIELD     FAIR      61  61 100 CALM      30.05S
PLYMOUTH       FAIR      63  61  93 E3        30.05F
TAUNTON        FAIR      66  63  90 CALM      30.04S
NEW BEDFORD    FAIR      64  61  90 CALM      30.05S
$$

MAZALL-270400-
CAPE COD AND THE ISLANDS

CITY           SKY/WX    TMP DP  RH WIND       PRES   REMARKS
FALMOUTH       FAIR      63  63 100 CALM      30.06S
HYANNIS        FAIR      63  60  90 E3        30.05R
CHATHAM        FOG       59  58  96 E3        30.06F VSB 3/4
PROVINCETOWN   FOG       59  59 100 NE5       30.07S VSB 1/4
NANTUCKET      MOCLDY    59  57  93 CALM      30.06S
MARTHAS VNYRD  FAIR      61  60  97 CALM      30.05F
$$

MAZALL-270400-
CENTRAL AND WESTERN MASSACHUSETTS

CITY           SKY/WX    TMP DP  RH WIND       PRES   REMARKS
WORCESTER      FAIR      69  66  90 W7G20     30.10R
FITCHBURG      MOCLDY    71  65  81 CALM      30.06F
ORANGE         CLOUDY    66  61  84 NW8       30.07F
SPRINGFIELD    MOCLDY    72  63  72 N5        30.04R
WESTFIELD      FAIR      73  62  68 CALM      30.04R
NORTH ADAMS    FAIR      64  64 100 E3        30.07S
PITTSFIELD     FAIR      66  60  81 CALM      30.08R
$$

RIZALL-270400-
RHODE ISLAND

CITY           SKY/WX    TMP DP  RH WIND       PRES   REMARKS
PROVIDENCE     CLOUDY    69  67  93 S3        30.06R
NEWPORT        CLOUDY    69  67  93 S3        30.05R
BLOCK ISLAND   CLOUDY    67  66  97 SW8       30.05S FOG
SMITHFIELD     FAIR      65  65 100 CALM      30.07R FOG
WESTERLY       FAIR      68  67  96 CALM      30.06R
$$

CTZALL-270400-
CONNECTICUT

CITY           SKY/WX    TMP DP  RH WIND       PRES   REMARKS
BRADLEY INTL   FAIR      75  62  64 NW3       30.03R
HARTFORD       FAIR      75  63  66 SE9       30.02R
BRIDGEPORT     FAIR      75  67  76 CALM      30.03R
DANBURY        FAIR      73  63  70 CALM      30.06R
GROTON         FAIR      69  63  81 CALM      30.06R
NEW HAVEN      FAIR      75  66  73 CALM      30.04R
CHESTER        FAIR      68  66  94 CALM      30.07R
MERIDEN        FAIR      71  64  78 CALM      30.04R
WILLIMANTIC    FAIR      69  65  86 CALM      30.05R
OXFORD         FAIR      69  64  84 CALM      30.07R
$$

MEZ002-015-021-024-NHZ003-005-008-011-012-014-VTZ005-008-270400-
NORTHERN NEW ENGLAND

CITY           SKY/WX    TMP DP  RH WIND       PRES   REMARKS
PORTLAND ME    CLOUDY    60  56  86 CALM      30.07S
BANGOR ME      DRIZZLE   59  58  96 CALM      30.09R FOG
CONCORD NH     CLOUDY    63  60  90 SE6       30.06R
MANCHESTER NH  MOCLDY    65  61  87 SE7       30.03F
NASHUA NH      MOCLDY    66  64  94 VRB3      30.05F
PORTSMOUTH NH  CLOUDY    59  59  99 SE5       30.06  FOG
JAFFREY NH     LGT RAIN  69  62  78 SW8G18    30.07F
KEENE NH       FAIR      68  64  87 N5        30.05S
BURLINGTON VT  FAIR      66  62  87 S5        30.01R
MT. WASHINGTON TSTM      54  41  62 NW10        N/A
$$

NYZ052-076-270400-
EASTERN NEW YORK

CITY           SKY/WX    TMP DP  RH WIND       PRES   REMARKS
ALBANY         FAIR      71  66  84 N6        30.04S
NEW YORK CITY  FAIR      80  65  59 NE8       30.02S
$$

ANZALL-270400-
MARINE OBSERVATIONS

STATION/POSITION TIME  TEMP    WIND        PRES    VSBY  WAVE
                       AIR SEA DIR/SP/G                  HT/PER
                 (UTC) (F)     (DEG/KT/KT) (MB)    (MI)  (FT/S)
BOSTON BUOY      0250   58 62   60/  6/  6 1016.8F         1/ 6
BUZZARDS BAY     NOT AVBL
NANTUCKET SOUND  0250      68              1017.8          1
MASS BAY-STELLWA 0204   57 59  210/  2/  4 1018.1R   1/4   2/ 5
ISLE OF SHOALS   0200   58      80/  7/  8 1017.5R
S OF BLOCK IS    0300      65                N/A           3/ 7
$$

......................KEY.........................
  SKY/WX - SKY CONDITION/PRESENT WEATHER
  TMP    - TEMPERATURE IN FAHRENHEIT
  DWPT   - DEWPOINT IN FAHRENHEIT
  RH     - RELATIVE HUMIDITY IN PERCENT
  WIND   - DIRECTION AND SPEED IN MPH
  PRES   - MEAN SEA LEVEL PRESSURE IN INCHES OF HG
  WCI    - WIND CHILL INDEX
  VSB    - VISIBILITY IN MILES
  HX     - HEAT INDEX
  TC     - TEMPERATURE IN CELSIUS
  VRB    - VARIABLE WIND DIRECTION
  N/A    - NOT AVAILABLE




USA.gov is the U.S. government's official web portal to all federal, state and local government web resources and services.